Dauntless Aviation
Airports South America Argentina
SABE
AEP

Aeroparque Jorge Newbery

Buenos Aires, ARGENTINA

Airport Info
Suggest Updated Information for this Airport

Location

Latitude / Longitude: 34°33'33"S / 58°24'56"W
  34°33.552'S / 58°24.936'W
  -34.5592 / -58.4156

Nearby radio navigation aids

FDO SAN FERNANDO VOR/DME. 132.7° 10.6nm from FDO to field.
OP AEROPARQUE JORGE NEWBERY NDB. 131.1° 4.3nm from OP to field.

Runway Information

Runway 13 /31

Dimensions: 6890 x 131 ft.
Surface: ASP
 
Runway 13
Runway 31
Latitude: -34.553942 -34.563844
Longitude: -58.425247 -58.407506
Elevation: 18 ft. 18 ft.
Runway true heading: 126.3 306.3
 

Instrument Procedures

  Aerodrome Chart

STARs (Standard Terminal Arrivals)

  STAR Rwy 13/16 SARGO7C KOVUK7C TENIL7C BELGRANO7C
  STAR Rwy 13/16 PAGON7C SAN ANTONIO7C ASADA7C VALOS8C
  STAR Rwy 13/16 SURBO7A KUKEN1C PAPIX1C
  STAR Rwy 31 SURBO2B SARGO7D KOVUK7D TENIL7D BELGRANO7D VALOS7D ASADA7D
  STAR Rwy 31 PAGON7D SAN ANTONIO7D

IAPs (Instrument Approach Procedures)

  VOR (DME) ILS Rwy 13
  VOR (DMS) ILS (DME) Rwy 13
  LI ILS (DME) Rwy 13
  VOR (DME) LO LI Rwy 13
  LI LO LI Rwy 13
  LI Rwy 31
  LI Rwy 31

Departure Procedures

  SID Rwy 13/31 LANDA3B VIBAM38 ATOVO38
  SID Rwy 13/31 EZEIZA8
  SID Rwy 13/31 EL PALOMAR 8
  SID Rwy 13/31 KUKEN7 SURBO7 DORVO7 LA PLAYA7
Satellite photo at:
Airport distance calculator
From:
Weather Reports

METAR

SABE

SABE 242300Z 10006KT CAVOK 24/20 Q1013
SADF
10.6nm W
SADF 242300Z 09005KT CAVOK 24/18 Q1013
SAEZ
16.2nm S
SAEZ 242300Z 06006KT CAVOK 22/19 Q1013

TAF

SABE
TAF SABE 241700Z 2418/2518 05010KT 5000 BR SCT020 FEW035TCU TX27/2518Z TN21/2509Z BECMG 2421/2423 05005KT CAVOK BECMG 2506/2508 09003KT 4000 BR BECMG 2512/2514 07010KT 7000 SCT020 FEW035TCU
SADF
10.6nm W
TAF SADF 241700Z 2418/2518 05008KT 9999 SCT030 FEW035TCU TX28/2518Z TN19/2509Z BECMG 2421/2423 CAVOK PROB30 TEMPO 2504/2510 07003KT 3000 BR BECMG 2513/2515 05010KT 9999 SCT030 FEW035TCU
SAEZ
16.2nm S
TAF SAEZ 241700Z 2418/2518 02003KT 9999 SCT030 FEW040TCU TX29/2518Z TN19/2509Z BECMG 2416/2418 05010KT BECMG 2504/2506 09003KT 0300 FG OVC004 BECMG 2513/2515 07010KT 9999 SCT020
SUCA
32.8nm NE
SUCA 241750Z 2418/2518 15008KT 9999 SCT025 TX28/2518Z TN16/2510Z BECMG 2500/2502 05005KT 1500 BR BKN005 TEMPO 2506/2512 0600 BCFG OVC003
Safelog

 

Dauntless Aviation

© 2007-2017 Dauntless Aviation, all rights reserved
Information provided via PilotNav comes from a variety of official and unofficial data sources. As errors are possible, do not use PilotNav for primary flight planning purposes. Verify any information that you receive via PilotNav with current and canonical charts and other official documents. The material in this database is subject to database copyrights held by Dauntless Aviation and may not be copied without the express permission of Dauntless Aviation - licenses for use of part of all of this data are available for purchase; enquire via the Dauntless Aviation helpdesk. A number of mechanisms and markers exist in the database to protect against and identify infringement / copyright. Automated queries against this website are stictly prohibited, and all activity is logged and analyzed.